Theta_e
321 323 323 323 325 328 329 330 331 332 331 331 332 332 333 332 333 333 332 331 331 331 331 331 331 330 331 331 331 330 327 320 319 319 317 319 328 331 328 330 331 333 331 315 310 307 304 306 304 304 303 304 309 305 309 308 306 304 297 293 292 291 293 294 295 294 295 297 297 299 300 300 297 300 302 303 303 304 305 308 311 320 320 322 322 327 329 329
321 323 322 323 325 326 328 329 330 331 332 331 331 332 332 332 332 332 332 331 331 331 330 331 330 330 331 331 330 328 324 321 316 317 317 332 338 334 333 335 334 330 326 310 307 305 304 304 304 303 301 298 311 305 309 304 306 299 295 294 291 293 295 296 295 297 298 298 300 300 299 301 300 300 300 299 298 302 302 304 310 317 321 323 325 327 327 328
322 321 323 324 325 326 328 329 329 329 331 330 330 331 331 331 331 332 331 331 331 330 330 330 330 330 331 330 329 327 322 319 316 313 319 334 338 337 337 336 334 332 316 309 311 306 305 305 304 302 302 299 302 302 305 301 304 298 297 292 293 297 295 296 295 297 299 300 299 299 299 300 300 300 301 298 297 298 300 302 307 316 317 320 323 325 326 327
321 321 322 322 322 325 327 328 329 328 331 330 330 330 330 330 331 331 331 331 331 330 330 330 330 330 329 329 328 325 321 315 309 315 324 335 339 338 337 337 334 329 322 310 312 310 310 308 305 304 302 298 298 305 303 301 298 298 296 294 297 297 296 296 296 295 300 302 300 300 298 298 299 300 300 297 297 296 297 305 306 314 319 320 322 324 325 325
321 322 321 320 321 323 326 327 328 329 330 330 329 330 330 329 330 331 331 331 330 330 330 330 330 329 329 328 327 323 317 308 308 319 325 334 339 339 339 337 333 325 323 307 310 308 309 305 303 303 300 295 300 300 299 302 302 302 296 298 297 295 296 297 297 296 297 299 301 299 298 297 300 300 298 298 296 295 298 302 306 318 322 322 322 323 324 324
321 321 321 320 322 321 325 328 328 329 330 330 329 329 329 329 330 330 330 330 330 330 330 330 329 328 328 327 323 320 313 294 314 317 331 335 336 338 338 335 331 324 322 311 312 310 307 305 302 301 304 297 295 295 298 301 303 295 296 297 297 297 297 298 297 296 296 298 299 298 299 299 298 297 298 298 297 297 299 301 306 319 324 324 324 323 322 323
321 321 321 321 320 320 321 327 327 329 330 330 330 329 329 329 329 329 329 330 330 330 329 329 328 328 327 326 321 318 310 311 311 316 329 335 336 335 336 331 327 317 318 311 313 312 307 306 303 298 300 301 296 295 297 298 302 299 295 296 297 298 297 297 298 295 295 299 298 298 299 299 296 295 298 298 299 298 299 300 305 317 325 325 323 323 323 323
320 321 321 321 320 320 317 324 327 327 327 330 329 329 329 329 329 329 329 329 329 329 329 328 328 327 326 319 314 310 309 309 317 320 331 334 334 333 328 319 315 314 312 310 311 309 309 308 302 299 297 296 296 297 298 296 299 297 295 297 296 296 297 297 296 295 296 297 296 298 298 297 296 296 298 297 299 300 307 306 306 315 324 323 323 322 322 322
319 320 320 320 319 319 318 321 326 326 327 328 329 329 329 329 328 328 329 329 329 329 328 328 327 327 325 317 312 307 307 318 327 328 331 330 329 324 320 314 313 310 309 310 312 311 309 308 305 301 295 295 298 296 297 295 293 298 297 296 296 296 297 296 297 297 297 298 297 297 294 295 296 298 297 298 298 302 307 310 311 316 321 321 321 322 321 321
319 320 320 320 319 318 320 322 325 326 326 327 328 328 329 329 328 328 328 328 329 328 328 327 327 326 318 313 311 304 314 323 330 327 328 328 325 321 321 315 311 310 306 306 308 308 308 307 304 302 300 298 299 296 298 299 293 299 296 295 295 296 296 296 296 297 297 299 297 297 294 296 296 297 292 297 302 303 308 310 312 314 318 321 321 321 321 321
320 320 320 320 319 319 319 323 325 326 326 327 328 328 328 328 327 327 328 328 328 328 327 327 326 322 314 313 308 304 315 325 329 326 326 327 322 320 317 314 312 309 307 306 305 308 308 306 306 303 302 296 298 295 296 296 299 299 296 295 295 296 297 296 295 295 296 297 296 297 295 296 296 297 292 295 303 304 307 308 310 312 313 317 318 319 320 321
320 320 321 321 319 319 320 323 325 325 326 326 328 328 327 327 327 327 327 328 328 327 327 326 325 319 315 312 309 310 312 323 325 325 325 325 321 322 319 316 313 311 308 304 304 307 308 308 303 300 293 300 293 297 296 298 300 302 297 294 294 295 295 296 294 295 296 295 296 296 295 294 295 293 296 295 303 300 305 306 308 309 311 313 316 317 318 320
320 320 321 320 320 319 321 324 325 325 325 326 327 326 326 327 326 327 328 327 328 327 326 326 323 317 313 306 311 311 310 322 322 324 322 323 317 316 320 318 315 314 312 308 305 307 307 305 304 299 300 298 295 293 297 300 297 298 297 295 294 293 291 294 296 295 295 296 295 297 287 290 294 297 296 297 301 298 300 303 304 306 306 310 313 314 316 318
320 320 320 320 320 319 319 323 324 325 325 325 326 325 325 326 326 326 327 326 327 326 326 325 319 316 312 306 308 309 316 317 321 319 314 313 314 311 316 316 313 312 312 310 309 308 305 304 304 302 303 298 295 301 299 298 298 292 294 295 290 289 286 293 295 294 294 296 295 296 288 288 292 295 296 297 299 299 299 300 302 302 303 305 308 310 313 315
320 320 320 320 319 319 319 323 325 325 325 325 325 325 325 325 326 327 327 326 326 327 326 323 318 313 306 308 307 312 323 313 314 314 312 312 308 308 311 309 307 308 308 310 307 307 306 304 303 298 296 299 299 296 292 293 294 293 290 286 289 287 288 293 295 295 294 296 295 294 288 290 293 293 294 297 297 298 297 297 299 299 300 304 305 308 310 313
320 320 320 320 319 319 319 321 324 324 325 324 324 324 324 325 325 326 326 325 327 326 323 314 314 314 305 302 302 322 311 306 307 311 311 312 310 308 309 307 304 304 305 302 304 304 304 303 299 297 297 297 295 291 290 291 291 292 289 286 286 287 288 292 294 293 296 294 296 292 287 289 291 293 295 295 297 297 296 295 297 298 298 302 305 307 309 311
320 320 319 318 319 320 320 321 322 323 323 323 323 323 324 324 325 326 325 326 324 324 318 311 315 315 301 305 309 306 303 307 308 309 308 309 312 306 305 304 302 301 302 302 303 303 303 300 301 298 299 293 292 293 287 286 285 287 290 286 288 288 287 286 291 294 294 293 291 292 290 288 290 293 295 296 296 294 294 294 296 299 299 299 304 307 309 310
320 320 319 319 319 320 320 321 322 323 322 322 322 322 322 324 325 324 322 321 320 319 317 317 314 306 304 301 298 301 304 303 306 306 306 306 308 307 305 303 301 301 301 300 305 299 299 295 297 292 293 293 291 290 286 283 285 284 286 286 287 289 289 289 288 291 293 293 291 291 289 291 292 292 293 296 295 295 294 295 295 298 298 298 301 305 307 309
320 320 319 320 320 320 321 321 322 323 322 322 323 324 324 324 320 319 315 314 308 302 299 301 303 297 296 300 302 303 304 306 306 305 301 304 306 308 305 303 302 300 297 297 294 297 297 297 297 291 288 289 289 289 288 290 291 290 290 289 288 287 287 289 291 293 294 290 289 288 290 291 293 291 292 294 294 294 295 294 293 295 297 298 299 303 305 306
320 320 320 320 320 320 321 322 323 322 322 320 318 317 313 307 306 304 311 310 305 303 307 304 308 304 300 303 301 304 307 307 302 303 303 305 305 304 302 302 301 300 295 293 292 294 298 290 288 288 290 290 292 292 292 293 293 292 293 290 289 289 289 290 292 293 293 292 289 289 290 289 291 290 292 293 293 292 292 293 294 293 294 297 298 300 303 304
319 319 320 320 320 320 321 322 322 321 321 318 316 310 301 301 297 296 303 306 308 308 305 305 308 307 301 304 303 303 300 300 303 300 303 306 305 304 298 299 296 293 294 294 292 296 294 288 288 291 292 292 293 293 293 292 291 291 289 288 287 289 286 290 292 293 292 292 290 290 289 289 290 291 292 292 291 293 294 293 294 294 293 296 297 299 300 303
319 319 320 320 320 321 321 321 321 321 320 317 313 308 308 307 309 312 308 298 306 309 308 306 309 303 304 304 306 306 304 298 297 300 304 304 301 301 297 297 294 291 293 294 293 290 288 287 291 292 294 294 294 294 293 292 291 293 289 287 287 286 288 291 291 292 292 293 288 289 289 290 292 293 292 291 293 294 295 295 296 295 294 294 296 297 298 298
319 319 320 320 320 321 321 321 320 320 317 313 309 309 307 310 313 316 313 306 302 309 305 304 303 300 300 303 305 307 300 297 294 297 300 302 298 298 297 294 293 293 292 292 289 287 284 287 293 295 294 293 292 292 292 292 292 290 288 287 284 287 287 286 289 291 291 288 289 288 287 289 291 292 292 292 293 294 295 295 295 295 296 296 296 297 298 298
318 319 320 320 320 320 321 320 321 317 314 312 310 308 311 314 315 314 309 300 299 305 305 305 307 300 299 299 303 304 301 299 298 295 303 301 297 297 297 295 293 292 290 291 290 289 287 290 293 293 293 293 291 291 291 289 288 291 290 288 288 291 290 285 288 290 290 291 290 287 285 286 287 289 290 292 293 294 294 293 294 294 296 297 297 296 297 299
318 319 319 319 319 320 320 320 314 312 314 311 307 309 310 314 315 313 306 301 302 301 307 305 308 306 301 307 305 300 299 300 300 300 301 301 297 296 295 298 294 290 291 291 290 290 289 291 292 291 291 292 292 289 290 290 286 288 292 291 290 291 288 289 289 288 285 285 287 287 278 278 282 286 290 293 292 292 293 293 294 295 295 295 295 296 297 298
318 319 319 319 320 319 320 312 311 313 310 306 307 311 310 311 312 307 304 294 289 295 301 294 309 301 308 299 302 299 300 295 300 302 302 301 303 298 296 294 294 289 291 290 290 290 290 289 291 292 291 290 291 290 291 291 287 287 288 293 293 291 289 288 288 288 282 281 287 288 281 275 281 284 285 287 288 291 292 292 295 295 295 295 296 297 297 298
319 318 319 319 319 319 312 305 314 312 305 305 309 311 310 310 306 306 299 284 286 294 293 302 304 301 305 300 300 299 289 290 299 302 300 303 300 300 294 291 292 294 294 293 290 287 288 289 290 292 291 290 289 289 291 291 288 285 291 295 294 292 290 289 288 286 281 283 288 287 281 277 279 284 288 288 287 288 289 291 292 294 294 295 296 297 296 298
318 318 318 319 319 317 312 313 310 306 307 309 312 311 308 306 304 300 293 278 280 299 293 295 302 307 303 301 301 296 293 298 293 296 301 301 298 296 295 291 291 291 293 292 283 292 290 288 290 290 291 288 288 290 293 293 289 288 294 296 293 293 291 291 289 285 284 283 281 280 287 282 277 282 286 286 288 288 289 290 292 293 294 295 296 297 296 298
318 318 318 318 318 317 315 312 309 306 309 310 309 309 308 307 304 296 286 279 291 290 307 296 306 301 298 300 297 296 295 299 292 296 299 299 299 295 290 291 293 292 292 292 286 289 289 290 292 292 290 288 290 291 292 294 290 294 296 296 295 295 293 291 285 287 286 282 278 281 284 278 278 281 284 284 288 286 287 290 293 294 295 295 296 297 298 297
318 318 318 318 316 313 312 313 309 310 312 310 307 306 308 303 296 288 281 274 293 283 296 296 295 293 296 293 293 295 294 294 294 295 298 295 296 297 295 296 292 292 290 292 290 290 291 292 295 291 290 291 291 290 292 293 294 296 294 292 290 288 286 284 284 284 285 279 279 280 284 283 277 281 284 286 287 289 290 289 289 290 293 295 296 297 298 298
318 318 317 317 310 311 311 305 308 311 310 308 308 308 304 295 287 282 276 283 292 289 294 293 292 298 292 290 288 293 292 291 293 295 292 294 291 294 293 292 295 290 286 287 286 290 289 290 292 290 291 291 292 292 293 294 296 295 290 286 287 285 283 282 282 283 278 275 278 281 283 283 276 277 282 287 287 287 289 290 291 290 293 294 294 295 295 296
317 317 318 315 313 314 306 304 309 312 311 308 307 303 296 283 285 280 277 294 283 286 288 289 293 294 292 293 290 291 289 291 293 293 291 291 289 289 291 287 289 284 283 285 284 287 285 287 290 291 294 293 290 290 289 291 295 292 289 288 283 280 281 277 279 277 275 276 280 281 283 282 281 284 287 288 291 291 289 288 290 290 292 295 296 297 296 297
317 316 317 315 313 311 311 312 311 311 309 307 304 298 289 282 275 284 283 286 281 290 287 295 292 293 293 290 289 291 291 287 291 292 293 290 289 289 290 289 290 288 281 283 283 283 284 286 290 289 291 293 292 288 284 285 289 288 287 283 281 277 274 272 273 275 275 279 281 280 282 281 281 284 292 292 295 297 294 290 290 292 294 296 296 296 297 297
317 316 313 312 312 312 311 312 311 310 307 305 299 292 286 280 278 291 285 285 286 291 293 292 292 293 292 288 289 291 287 290 290 289 291 288 289 286 288 289 291 289 287 284 283 283 279 279 285 287 285 292 291 290 289 288 288 289 288 288 284 283 277 273 275 274 275 276 279 281 279 275 278 282 286 292 296 295 293 292 292 293 293 294 295 295 296 296
316 315 313 312 311 311 311 311 311 310 306 301 294 288 280 280 284 283 283 285 287 291 290 294 291 290 289 291 291 293 290 284 290 289 288 287 285 287 287 289 291 290 288 285 284 283 284 282 287 290 291 289 290 293 292 290 289 288 290 290 284 284 285 280 282 279 276 275 277 278 277 278 282 286 290 290 289 291 292 291 291 292 294 294 295 296 296 296
314 311 312 308 307 310 312 311 310 309 303 296 289 284 282 285 282 288 285 292 290 288 289 292 291 288 287 286 289 291 292 288 288 288 285 287 288 286 288 289 290 292 289 285 284 279 282 280 286 289 289 289 290 289 290 291 283 286 288 283 285 290 286 282 282 283 280 275 274 277 280 281 284 288 292 293 289 290 290 290 289 290 289 289 291 293 294 295
309 309 305 307 307 310 311 310 310 306 301 294 287 282 287 288 290 289 293 290 290 292 289 285 286 287 285 284 286 289 289 291 288 286 282 287 285 288 288 290 293 291 292 290 284 286 282 281 286 286 287 290 289 286 289 288 289 287 282 286 289 291 290 285 279 280 276 274 274 277 278 277 279 278 286 286 289 292 291 290 289 289 289 290 292 292 294 295
307 306 306 305 307 310 311 310 308 303 297 291 285 288 289 288 291 292 292 292 292 292 289 287 286 291 286 286 285 288 289 289 286 287 283 287 283 291 289 289 292 293 292 292 288 286 288 280 284 286 287 288 290 290 289 289 291 286 285 290 287 281 282 282 282 274 273 271 272 277 277 276 278 280 284 286 286 288 290 290 289 290 290 292 292 292 292 293
307 304 298 305 310 310 309 309 305 299 293 287 285 286 289 289 293 292 293 293 294 291 288 288 287 289 289 286 287 289 289 286 287 285 283 284 282 288 290 291 289 293 293 292 290 287 288 281 281 286 287 287 285 286 283 284 290 290 290 286 287 285 283 280 281 278 278 271 272 271 277 277 281 281 285 289 289 289 289 287 288 289 291 292 292 293 292 293
302 298 296 307 310 310 309 306 300 295 290 284 286 287 291 289 292 294 295 294 290 290 287 288 290 288 289 288 289 286 288 288 286 285 287 285 286 291 290 293 290 291 292 292 291 292 284 284 277 282 287 287 282 283 283 286 284 284 284 283 286 283 285 284 283 283 278 272 271 269 271 274 280 285 287 290 290 287 287 288 290 290 292 292 292 293 293 294
304 296 296 308 309 309 307 301 294 289 288 290 289 287 289 290 291 292 295 296 293 295 290 290 290 288 289 288 287 290 287 286 287 285 285 284 287 282 290 292 292 290 291 291 291 289 285 283 280 279 281 280 281 285 286 288 290 287 287 285 286 282 281 281 279 282 280 279 273 272 274 275 283 287 289 287 287 288 290 290 292 292 292 291 292 292 294 296
298 288 293 307 308 307 300 291 291 293 289 287 286 289 288 298 291 291 293 295 294 291 295 292 291 290 290 289 290 289 288 287 287 286 285 283 288 287 289 293 294 294 292 287 288 289 286 283 282 276 280 283 284 288 287 287 285 287 286 287 288 285 284 280 278 279 280 280 280 276 273 279 286 287 287 287 286 287 288 289 291 290 290 290 290 290 292 294
295 291 304 307 308 304 296 289 291 290 287 289 292 291 293 292 291 292 292 293 291 293 292 291 290 290 290 291 290 290 290 285 288 287 287 286 287 289 292 293 295 294 293 286 290 289 290 282 279 281 283 284 284 286 286 285 287 287 286 284 285 283 284 284 284 282 281 278 278 277 276 281 287 287 286 285 285 285 287 288 289 289 289 290 290 290 291 292
297 296 298 306 307 303 293 284 284 286 286 290 290 290 293 291 291 291 291 292 292 292 291 291 291 293 290 292 292 289 291 284 288 289 286 289 288 291 293 294 296 293 293 290 291 292 283 280 283 275 275 279 280 283 283 285 284 281 282 284 286 287 286 283 282 282 281 281 280 277 277 281 285 286 286 285 286 287 287 287 288 289 289 290 291 291 292 293
298 299 299 300 304 300 290 290 288 287 287 287 288 288 290 291 293 294 293 291 292 292 291 290 292 292 290 293 291 292 292 290 285 290 289 289 291 292 293 294 296 293 294 294 296 294 285 282 284 277 275 273 271 275 278 280 282 282 282 284 286 288 284 283 280 280 279 280 281 278 281 285 285 286 290 288 286 287 286 287 289 289 290 291 291 292 293 293
292 285 293 295 299 297 294 293 292 289 286 286 286 286 290 288 291 292 294 291 292 292 291 292 292 293 290 291 288 288 289 290 289 286 289 287 289 289 292 293 295 294 294 296 295 293 280 284 285 285 283 281 282 281 284 285 283 283 282 284 284 285 285 284 281 279 280 278 278 283 285 285 285 287 287 287 286 286 288 289 290 291 290 289 289 290 291 293
292 288 288 286 294 294 290 294 290 290 287 290 285 288 287 289 289 290 293 290 292 294 291 293 292 291 289 290 288 287 289 288 289 289 286 288 286 288 291 292 293 293 295 294 294 289 281 282 284 285 285 284 283 282 285 289 285 286 284 284 284 285 284 284 283 282 282 280 280 284 285 284 286 286 285 286 288 287 288 288 289 289 290 292 293 291 293 293
287 290 294 295 289 286 287 288 292 290 291 291 288 291 288 288 289 287 290 292 293 294 291 291 293 293 292 290 289 285 286 286 287 286 287 285 286 288 290 289 289 292 293 291 290 288 284 284 283 284 283 284 285 286 287 288 287 286 286 285 284 285 284 284 284 286 284 283 282 286 285 285 287 287 290 290 291 292 293 293 292 291 291 293 293 293 294 293
287 286 290 295 289 291 291 292 292 290 289 290 288 291 288 289 288 289 288 288 292 290 293 287 289 291 292 292 291 286 287 283 282 286 286 286 287 285 283 287 289 288 289 288 288 284 287 279 281 284 282 284 283 285 286 286 284 284 285 286 287 285 285 286 287 287 286 286 287 288 285 286 290 289 290 291 292 292 292 291 291 292 293 293 293 293 292 293
284 286 288 292 290 291 291 291 291 289 287 290 286 289 290 290 288 290 290 290 288 289 292 291 290 291 291 291 291 288 289 290 289 285 285 288 283 284 285 283 285 286 288 286 288 286 287 280 287 280 280 279 282 283 283 282 284 283 284 286 287 287 287 287 288 288 286 286 287 286 284 285 292 291 290 291 290 290 291 291 291 291 291 291 292 292 293 293
285 285 287 289 286 287 291 292 290 289 287 288 285 288 290 290 290 292 291 292 292 289 291 290 291 290 291 291 290 290 292 292 292 292 291 292 288 289 290 284 289 287 287 286 286 286 286 278 282 280 279 276 280 281 278 278 280 281 282 283 285 285 284 286 285 287 285 285 286 285 283 285 288 292 293 291 290 291 291 289 289 290 289 290 291 292 292 293
286 291 291 290 286 291 289 291 291 289 285 288 289 289 289 290 292 293 288 291 293 293 293 292 291 292 288 290 289 292 292 294 295 294 295 296 295 291 291 292 293 291 288 288 286 287 285 282 281 278 278 274 276 280 278 280 281 278 282 285 286 286 287 287 287 287 288 289 285 283 285 290 288 289 289 289 290 290 290 291 291 290 289 289 291 292 292 292
Wind_Speed
21 19 17 18 18 24 25 25 24 24 24 25 23 22 23 22 21 20 20 17 19 19 17 17 14 11 13 12 14 12 10 5 4 4 5 6 6 10 6 7 5 6 10 4 5 6 7 9 11 10 6 2 1 1 1 1 1 1 2 2 2 4 1 2 4 5 4 7 5 6 5 7 5 0 1 3 8 7 4 8 2 7 6 2 6 16 15 15
20 19 17 19 19 22 26 23 25 24 24 25 25 24 22 21 21 21 21 20 21 19 19 17 15 13 12 13 14 16 8 2 7 6 12 4 11 11 11 9 8 6 6 5 4 6 10 8 7 7 5 3 2 1 0 1 1 2 2 3 6 3 4 1 2 3 7 5 12 7 3 7 5 7 3 5 4 5 6 3 3 8 6 9 12 15 16 15
20 20 16 15 17 21 27 25 23 25 24 23 24 24 23 23 22 21 22 19 20 20 20 18 18 15 14 14 13 11 4 1 2 12 11 9 11 11 10 9 11 6 2 3 2 7 7 2 5 4 2 2 2 0 2 1 1 3 2 3 5 2 1 2 4 3 2 9 7 7 4 5 4 3 2 5 7 5 8 7 3 9 9 10 11 13 14 14
19 22 18 16 18 20 25 25 23 23 24 23 23 24 23 22 21 21 22 20 20 20 20 20 18 16 16 16 14 5 2 2 8 2 5 13 13 13 11 11 13 7 1 2 2 3 3 2 2 1 2 2 3 0 0 3 1 2 2 3 2 1 1 2 3 5 3 12 10 9 3 4 4 4 4 8 9 4 4 8 11 11 14 12 12 13 12 13
18 21 22 18 19 17 23 26 23 25 24 22 23 25 22 22 21 20 20 21 21 21 20 19 19 18 16 15 12 5 5 2 6 10 12 17 16 14 12 13 12 7 1 5 3 3 4 3 4 5 3 2 2 2 2 1 3 1 5 6 3 1 0 2 3 4 2 4 11 7 8 5 2 2 4 10 9 9 9 9 9 15 15 16 14 12 11 13
18 20 24 20 18 17 22 26 27 25 24 24 23 24 23 22 21 21 21 21 22 21 20 19 19 18 16 16 9 3 6 6 1 2 11 22 22 17 14 14 13 9 1 4 4 4 5 5 7 4 2 3 2 0 4 3 3 3 3 3 1 2 1 1 3 4 1 5 7 7 5 5 5 2 3 7 6 2 4 8 12 16 17 17 15 14 13 13
18 19 22 18 19 21 21 28 26 26 25 24 23 23 22 22 21 22 21 21 22 21 20 19 18 18 16 13 4 4 8 7 3 4 3 18 22 20 15 16 14 10 4 8 6 4 3 4 4 2 1 1 10 4 7 3 3 4 5 1 3 0 4 3 0 4 2 10 6 4 5 7 6 5 3 4 2 2 3 3 12 16 14 15 15 15 18 16
19 21 22 21 21 20 22 22 25 24 25 24 24 23 23 22 22 21 20 21 22 22 21 20 19 18 18 8 7 3 7 12 4 3 5 16 17 20 18 13 13 9 6 12 12 9 6 3 3 2 1 3 3 1 2 6 3 4 5 2 1 1 1 0 0 2 2 3 1 7 7 7 6 4 2 3 4 3 1 3 12 13 14 14 15 15 14 13
22 21 22 23 23 20 21 23 23 24 24 25 24 24 23 23 22 22 21 21 22 23 23 22 20 19 17 10 9 8 12 9 4 3 11 14 13 16 18 10 12 13 8 8 11 12 12 4 2 1 1 3 5 8 1 4 4 3 6 2 1 0 0 1 2 1 1 1 4 6 3 0 3 2 3 6 5 4 4 8 12 15 15 14 15 15 14 13
25 25 24 25 23 20 20 21 24 24 24 25 24 24 24 23 22 22 20 20 21 23 23 23 21 21 11 7 6 11 3 11 4 6 13 14 14 14 15 15 14 12 10 7 10 12 10 6 8 3 4 9 9 8 1 2 3 1 6 4 4 3 1 2 2 1 1 1 1 6 4 2 1 3 5 3 7 4 7 10 9 14 15 13 11 11 12 14
27 27 26 25 23 21 23 22 24 27 26 25 24 23 23 21 22 21 21 20 20 20 22 23 23 18 10 8 12 12 1 6 7 7 15 16 14 12 12 14 14 12 11 7 10 12 10 9 5 1 1 5 1 3 2 3 1 5 1 3 3 1 1 0 1 1 0 0 1 6 2 0 1 0 7 5 6 8 12 11 10 10 11 10 10 11 9 11
31 28 27 27 25 24 24 25 25 26 27 25 24 23 23 22 22 22 21 21 20 21 21 20 24 11 5 9 10 7 1 3 4 8 13 18 15 13 15 15 13 13 14 12 7 7 11 8 3 1 4 2 5 1 4 2 0 2 5 2 1 1 1 1 4 3 1 2 2 3 4 1 1 7 8 6 10 6 12 11 12 10 10 9 9 9 8 11
31 31 29 30 26 26 25 25 30 27 24 26 24 23 22 22 22 23 22 21 21 22 23 22 15 7 11 9 11 2 1 7 6 6 9 10 8 3 10 13 11 10 11 13 12 11 8 6 4 5 5 3 4 2 1 0 2 0 2 2 1 1 3 6 1 2 2 1 3 2 2 6 10 13 6 5 10 6 9 9 9 9 9 9 9 9 9 8
31 30 30 30 27 27 27 24 26 28 26 25 24 24 23 22 22 22 23 21 22 18 18 22 11 8 8 6 2 2 2 4 9 9 10 10 13 5 6 7 6 7 8 7 7 7 7 5 5 5 3 4 3 1 1 0 0 3 3 2 3 1 3 3 5 6 4 1 1 1 4 6 6 8 5 6 10 12 11 9 10 9 8 9 9 9 10 10
32 30 30 31 29 27 26 25 24 26 27 25 26 24 23 24 22 23 22 20 21 18 17 13 9 8 6 4 3 2 8 4 9 10 11 15 13 9 10 7 6 7 7 10 6 4 5 5 3 3 5 2 3 3 2 2 1 2 3 5 1 4 4 2 1 8 8 0 2 3 2 8 7 6 5 9 7 9 9 7 8 7 8 8 9 10 9 10
32 31 30 30 29 27 27 26 27 27 26 27 24 24 23 23 23 22 24 19 20 21 15 11 6 1 8 7 3 6 4 6 7 8 6 14 15 14 15 10 6 5 7 2 4 4 4 4 5 5 5 4 3 2 2 0 1 2 6 2 4 4 4 1 2 4 1 3 1 4 5 3 3 2 3 5 9 9 9 7 7 8 8 8 8 8 9 8
32 32 31 30 29 27 29 29 26 26 27 26 26 25 24 23 23 22 20 20 14 11 11 8 7 2 8 2 3 7 3 2 6 3 4 4 10 13 12 10 5 7 7 5 5 5 2 4 0 1 1 4 3 3 3 5 2 4 2 3 4 7 2 2 3 3 2 5 5 3 2 5 2 1 2 4 6 6 7 8 7 8 7 7 7 8 9 9
32 32 31 31 31 30 31 33 29 28 28 28 26 24 21 24 24 23 16 12 6 4 6 2 4 6 3 2 10 11 4 6 8 7 4 2 9 15 12 7 3 9 9 6 0 7 3 4 3 4 2 6 5 6 8 8 7 4 3 4 4 0 6 5 4 4 6 2 5 2 3 8 9 1 4 5 5 8 8 9 9 9 9 8 7 7 8 9
32 32 31 32 30 29 30 35 34 32 30 28 28 28 23 24 14 6 9 10 11 6 6 6 8 12 10 19 8 8 7 9 8 9 5 8 5 9 5 4 10 12 8 8 2 7 3 1 3 5 10 8 9 6 7 4 8 5 8 6 4 4 4 5 5 1 9 5 4 5 8 10 12 4 4 5 4 7 9 7 6 7 8 8 9 9 9 9
32 32 32 30 29 27 27 33 39 34 33 25 23 19 12 11 7 6 4 8 8 15 4 19 16 3 7 16 10 6 8 12 10 1 6 2 11 11 7 6 5 5 8 11 5 8 4 8 12 13 9 5 5 5 6 9 1 2 2 5 9 7 3 2 1 1 0 2 7 8 8 5 7 5 6 7 4 4 5 6 8 7 9 9 10 11 12 11
32 31 31 30 30 29 28 28 32 34 36 23 23 19 17 18 17 11 12 10 10 12 2 10 14 1 3 11 13 19 13 3 3 6 8 6 8 16 8 10 9 9 9 7 8 1 6 9 9 8 6 5 6 5 7 9 3 1 2 4 6 6 5 2 1 0 3 4 3 4 4 6 8 7 8 4 5 9 11 10 9 10 8 10 12 12 13 13
31 31 30 30 29 31 34 29 29 32 31 21 20 16 15 24 6 16 22 13 13 12 4 14 14 4 3 15 17 16 10 5 4 7 2 7 10 15 7 9 11 10 9 8 7 6 9 12 8 7 7 5 7 9 8 9 8 0 1 2 4 5 1 1 1 1 0 1 5 3 5 9 10 9 4 4 9 8 11 12 14 13 10 8 10 11 10 6
32 30 31 30 30 30 35 37 31 32 20 19 17 12 15 8 8 11 6 10 11 8 1 16 18 1 7 4 7 16 14 13 11 8 8 5 9 5 11 9 11 9 8 10 12 9 7 8 7 9 9 9 6 6 8 9 5 4 1 1 2 4 6 2 2 0 1 1 1 1 2 8 6 5 7 6 8 7 9 12 11 9 13 12 12 12 11 12
31 31 30 31 33 31 33 36 34 26 18 24 20 13 12 9 16 12 14 7 11 6 6 11 10 4 6 11 6 14 17 6 11 12 9 10 14 5 9 10 12 9 10 10 10 10 4 4 6 8 11 13 8 7 9 7 8 2 4 2 1 0 1 3 3 1 0 1 1 1 5 7 5 6 6 6 8 7 5 6 7 7 8 10 7 5 9 14
32 32 32 32 32 38 31 34 21 18 19 15 4 6 7 13 17 13 16 8 3 2 5 5 2 1 5 1 6 6 4 5 7 8 7 10 10 7 8 6 7 9 9 9 7 9 6 4 4 5 9 11 8 8 10 8 5 5 3 7 4 2 4 2 4 4 2 2 1 3 2 5 4 6 11 10 5 6 7 8 10 12 11 7 7 12 11 9
31 32 34 33 33 37 37 17 17 16 19 16 11 15 7 8 13 5 12 4 6 5 7 10 5 6 3 4 5 4 10 6 4 9 9 8 5 8 5 7 4 12 11 11 8 3 5 0 5 7 8 10 9 5 6 10 6 7 8 2 7 8 7 5 4 2 0 1 2 1 7 6 6 2 3 5 3 10 7 7 12 12 12 9 12 12 12 13
30 32 34 37 34 38 22 7 14 19 19 11 8 12 11 10 4 5 12 2 5 6 11 4 10 3 3 7 7 9 11 8 4 6 7 5 10 0 12 6 4 2 6 3 2 7 2 2 5 5 6 10 8 9 4 8 7 5 1 1 2 7 7 6 5 3 1 1 1 2 3 2 6 7 7 5 4 8 8 7 10 9 9 10 12 12 10 11
31 32 32 38 39 36 17 14 19 22 19 15 13 15 10 8 6 3 5 6 5 12 7 5 4 1 1 11 9 8 1 14 9 7 6 3 3 1 6 8 8 10 7 7 12 0 7 5 6 8 4 5 8 4 4 6 5 3 1 5 5 7 5 5 5 3 1 1 7 2 1 0 4 7 6 2 3 4 6 7 9 10 10 12 13 12 10 11
31 33 36 39 43 24 9 15 20 18 8 11 9 11 8 8 4 8 5 7 3 3 4 13 2 7 3 10 8 2 6 8 6 8 1 2 1 3 6 6 6 8 4 8 7 2 2 8 12 10 6 6 4 3 4 10 5 2 2 4 4 5 4 6 3 4 0 1 6 3 1 3 7 7 5 2 1 6 7 8 10 10 11 12 12 12 12 10
32 34 35 38 30 11 11 11 11 8 11 11 12 11 11 7 7 10 8 7 6 4 7 3 6 14 9 14 9 5 12 4 4 5 6 5 3 1 0 2 4 6 3 5 4 4 1 2 1 3 8 6 7 1 1 4 3 4 5 7 6 6 3 3 4 3 2 2 6 6 4 3 4 4 5 4 5 7 7 5 5 5 7 10 10 11 10 10
36 35 34 35 18 13 15 14 15 16 14 12 14 16 11 4 8 10 11 3 5 2 3 11 7 15 16 17 11 5 6 2 8 14 8 3 2 1 3 2 3 6 5 4 3 2 2 1 1 1 1 1 4 5 4 1 3 9 3 4 6 3 5 4 2 3 2 5 5 2 3 5 6 4 5 8 5 4 5 6 7 7 8 9 8 8 7 6
36 36 36 25 12 13 19 16 17 16 17 17 16 16 12 10 2 12 7 6 10 9 12 12 10 13 17 15 10 12 8 5 8 15 16 12 10 12 13 11 10 9 7 10 6 1 3 1 1 4 2 4 4 7 2 3 0 4 7 7 7 2 2 1 1 2 4 5 1 1 2 1 7 7 8 6 9 8 5 5 3 4 5 4 2 2 3 4
33 39 39 17 18 11 11 15 13 12 16 18 15 10 12 12 14 8 5 12 3 15 9 18 20 21 18 16 11 8 3 8 6 10 12 6 9 7 3 3 5 5 10 4 7 4 1 1 2 3 3 2 4 12 2 3 3 6 9 7 6 2 2 3 3 1 3 4 3 0 1 3 3 6 12 13 17 17 9 5 7 7 7 6 5 4 4 4
32 38 24 12 13 12 18 18 15 17 17 14 15 8 4 12 11 11 11 10 8 8 16 15 21 18 18 16 13 10 7 4 11 7 12 8 10 11 9 8 9 6 6 4 9 7 7 2 6 4 3 1 1 1 7 7 4 7 4 9 7 6 4 3 3 4 6 5 2 3 1 6 4 4 4 12 11 10 8 5 4 4 4 4 3 2 1 2
36 27 19 10 11 15 20 17 19 20 14 14 13 13 16 11 10 15 9 5 6 10 14 16 17 16 14 9 6 9 5 3 7 12 9 14 12 12 16 14 8 6 5 11 4 3 8 2 2 2 1 1 5 1 1 5 5 3 4 5 6 7 5 4 4 4 2 1 0 1 5 5 4 2 8 5 6 7 8 6 3 4 1 0 2 4 5 5
30 13 12 8 13 16 19 15 20 19 16 13 13 13 15 15 13 11 11 9 13 14 17 19 16 16 13 8 6 13 3 6 7 7 5 11 12 12 6 4 9 10 12 10 4 4 3 3 3 6 3 1 1 1 1 2 8 4 5 6 5 4 7 3 2 0 2 3 6 2 4 5 7 7 9 10 4 7 5 6 4 5 4 2 4 5 6 6
14 14 9 9 12 18 18 18 17 17 13 14 14 14 14 10 5 11 10 18 15 21 20 21 13 15 14 11 9 13 7 9 9 7 7 5 4 10 11 10 10 7 7 9 1 1 9 2 2 3 2 0 1 0 1 2 1 6 3 7 2 1 5 5 4 1 0 4 5 3 6 4 2 4 4 2 6 11 9 7 5 4 4 5 8 7 7 7
14 10 10 12 15 16 17 18 19 13 11 13 14 12 6 8 5 10 7 15 15 17 15 16 8 16 19 19 17 20 13 16 14 10 8 13 4 10 12 8 9 12 8 3 8 3 8 4 0 1 1 6 0 0 2 1 0 3 5 3 8 2 6 2 3 4 2 4 3 2 3 3 6 5 6 8 4 5 8 6 3 5 5 6 7 8 6 6
13 11 8 8 10 17 16 17 15 15 11 11 13 13 4 0 4 9 15 15 13 19 19 11 13 9 13 14 11 16 20 17 15 11 11 8 9 9 19 10 9 9 10 9 7 4 3 6 1 1 1 1 2 2 9 2 2 0 1 2 1 3 4 5 7 3 5 5 1 6 1 5 5 5 9 11 10 8 7 5 4 5 5 6 6 6 6 6
12 8 6 9 12 17 19 15 12 10 10 18 15 8 7 5 6 15 18 23 10 13 6 13 13 14 14 12 16 14 11 12 15 8 9 4 6 2 14 10 9 10 11 6 4 7 3 3 5 2 2 2 3 2 6 8 7 0 2 4 1 1 2 4 0 6 6 3 3 2 2 4 6 7 6 9 8 5 4 4 4 5 4 4 5 5 6 7
8 9 7 8 14 17 19 13 13 16 15 11 8 4 9 5 6 9 20 18 8 2 7 13 14 15 15 12 12 10 7 6 11 9 7 4 13 5 8 14 10 12 7 5 5 5 3 3 8 2 2 3 5 3 4 9 7 9 11 9 10 7 5 8 8 2 2 3 4 2 9 6 9 3 6 5 6 5 4 3 3 3 3 4 4 3 3 5
12 7 8 15 19 23 21 18 12 14 10 16 14 5 6 3 8 12 13 12 12 4 4 8 9 9 13 13 14 14 11 13 13 10 5 7 10 2 5 10 14 14 13 9 8 1 6 3 9 5 6 8 4 2 0 0 2 2 2 8 9 5 6 6 9 5 1 3 2 3 3 11 8 5 5 5 3 4 3 3 4 4 5 5 4 4 4 4
9 6 13 20 22 24 20 17 18 15 9 5 4 1 1 4 7 10 13 10 10 5 7 6 12 10 9 10 9 10 13 5 12 14 5 5 7 4 10 14 15 17 11 4 6 4 9 5 6 1 1 3 3 3 2 1 1 3 2 1 1 4 4 8 8 8 8 3 4 2 7 7 4 6 7 5 4 3 4 4 5 6 6 6 5 5 6 4
7 12 9 10 19 17 18 20 17 12 6 5 8 4 2 2 7 9 8 11 7 9 10 7 9 13 11 7 14 16 17 6 7 10 3 4 5 5 13 15 22 12 15 10 13 9 4 2 10 4 2 2 3 3 2 1 2 1 1 1 1 1 1 1 4 3 5 8 7 7 12 11 5 2 5 2 1 4 5 4 6 6 6 5 5 5 5 4
9 3 8 10 9 11 12 6 19 21 16 15 14 8 6 3 8 12 12 11 5 7 7 7 9 9 6 10 11 9 16 10 6 7 4 5 6 1 10 19 23 14 10 8 9 8 4 6 10 8 11 9 6 12 14 9 6 2 3 5 7 9 5 5 5 3 7 6 8 6 13 5 3 3 2 4 2 5 4 5 5 5 5 6 5 3 3 3
8 11 4 7 4 8 2 4 2 7 8 10 12 4 7 6 4 5 15 4 3 4 4 6 5 10 6 9 7 9 14 1 9 6 10 7 4 1 4 13 19 11 10 16 13 11 4 4 6 12 14 16 10 2 2 11 4 7 5 6 5 3 4 3 4 5 11 3 6 12 16 10 4 3 0 3 0 3 6 7 5 4 4 4 4 4 4 4
1 9 14 11 6 8 5 6 1 10 13 10 10 6 8 8 5 3 8 5 5 8 4 9 7 11 9 16 12 10 12 4 4 10 6 9 0 2 3 9 7 9 16 10 14 7 4 5 9 9 8 4 6 5 8 16 13 13 10 9 6 6 5 6 9 11 5 5 11 13 11 11 13 6 5 6 6 5 6 6 6 5 6 5 4 2 3 2
6 2 8 12 18 19 12 10 10 13 14 17 8 6 9 13 12 10 1 1 8 8 10 0 11 13 19 18 14 11 12 5 9 11 5 2 5 2 6 5 4 2 12 6 6 7 7 9 4 4 1 5 6 9 13 11 13 12 13 11 10 11 7 12 12 12 9 11 18 12 6 12 13 9 13 10 7 8 8 9 7 5 3 2 1 1 1 3
1 2 1 2 3 12 22 22 25 18 20 20 7 12 8 12 14 9 5 5 8 7 11 11 17 18 19 18 16 9 14 8 6 6 8 8 11 8 4 3 2 4 4 5 2 1 5 1 4 6 4 3 4 10 9 12 5 5 10 13 15 14 17 19 19 17 14 13 14 8 6 15 15 9 11 9 8 9 5 1 2 1 4 5 2 2 3 5
2 3 7 5 5 11 8 13 5 2 12 14 7 15 14 18 17 7 2 9 9 8 6 15 17 13 13 15 15 16 19 19 18 10 1 11 4 2 6 4 7 2 4 5 4 2 6 4 8 4 5 4 5 2 4 4 9 7 8 12 15 18 20 22 17 12 8 9 11 8 7 16 15 4 6 5 5 1 1 2 5 6 6 4 3 4 5 6
1 1 2 8 4 4 9 10 12 14 12 11 5 9 9 15 15 12 5 4 15 10 10 19 18 13 10 15 11 16 18 12 15 21 22 22 16 11 11 3 7 8 5 4 3 0 4 1 1 5 7 3 1 5 3 5 3 6 8 14 19 20 16 11 10 7 7 13 15 10 11 17 2 8 9 5 3 2 3 4 5 5 5 4 5 5 6 7
1 3 1 1 4 3 14 10 8 9 12 13 11 13 12 19 14 15 6 3 2 5 8 12 9 12 5 11 15 16 10 12 13 11 15 13 9 4 3 12 16 16 9 10 5 9 6 6 6 5 7 5 2 8 9 6 3 4 14 26 18 8 10 7 8 8 16 15 10 11 19 9 4 5 4 3 5 5 6 6 6 8 7 5 6 6 5 6
Wind_Direction
238 239 243 252 254 231 208 200 194 193 193 195 187 182 179 178 176 172 167 161 159 166 161 161 164 161 154 141 140 137 145 128 160 181 193 226 156 136 143 117 76 35 349 8 3 44 44 12 0 343 3 22 295 50 262 51 144 64 140 133 272 204 171 230 227 192 193 134 187 188 191 126 128 128 121 67 54 89 77 84 36 46 37 67 109 124 129 137
242 243 236 248 251 245 208 201 198 192 191 194 191 186 179 179 176 172 167 164 166 167 161 163 156 164 155 147 145 149 150 139 181 201 211 143 145 152 152 134 96 57 351 39 57 71 65 5 334 336 1 11 298 6 351 274 76 139 184 121 219 204 232 287 278 191 128 191 168 179 157 162 168 138 185 96 126 115 87 43 77 78 61 83 107 121 132 139
247 247 237 242 255 251 211 196 197 196 192 191 194 190 185 180 180 173 168 165 165 166 165 164 168 165 154 147 148 161 140 71 265 233 225 172 158 162 154 129 107 81 57 115 12 94 109 177 284 316 348 9 326 288 44 280 106 238 121 219 244 211 242 356 348 288 229 134 142 151 203 158 187 142 168 131 156 129 144 136 99 121 131 128 130 131 138 143
246 247 238 235 252 261 218 196 193 197 192 188 193 189 185 181 178 176 169 164 163 163 164 168 166 166 157 151 149 140 86 38 241 198 192 172 171 165 162 141 117 96 56 81 167 92 140 160 240 12 26 47 292 83 123 259 104 266 124 203 230 244 270 310 335 315 184 147 154 162 123 136 195 167 138 152 118 201 195 186 158 163 151 147 148 145 145 148
243 242 243 231 240 257 232 198 196 195 192 188 187 189 182 182 178 175 170 161 161 160 160 159 159 159 156 148 142 143 121 58 260 192 177 178 161 168 158 140 124 109 130 175 120 83 83 61 52 30 37 299 324 29 231 257 204 85 211 212 221 328 98 269 291 303 288 142 135 151 135 193 120 103 156 155 161 199 193 196 167 155 155 152 155 158 151 157
242 236 241 234 232 244 239 201 193 194 191 187 185 188 181 183 179 175 171 163 160 157 156 157 156 153 149 146 136 154 166 199 124 176 194 172 171 163 149 125 120 121 102 106 97 38 50 16 60 39 15 358 333 82 276 226 165 249 289 222 217 227 168 277 336 320 266 131 141 146 185 111 147 182 194 167 184 235 211 176 167 159 163 161 154 154 163 166
240 235 235 229 229 232 250 202 196 194 188 183 183 185 181 179 182 176 170 162 157 154 154 154 152 147 147 135 95 157 211 250 72 239 188 185 164 154 130 122 117 119 143 106 94 88 50 36 74 111 61 348 289 255 265 294 208 207 243 206 233 134 170 223 241 311 32 136 158 171 132 137 147 151 208 163 252 225 247 228 167 163 154 149 156 170 170 174
240 236 232 229 225 215 233 235 195 191 191 183 181 181 181 180 180 176 171 162 156 153 151 152 152 150 137 133 125 196 219 237 201 252 210 177 159 143 130 123 127 127 149 145 136 123 112 91 167 122 102 206 260 285 305 335 211 208 257 239 219 71 213 239 129 342 31 94 130 116 133 171 152 172 134 221 187 207 121 141 151 146 149 160 163 172 174 176
240 234 228 227 227 216 213 237 203 193 190 187 178 178 179 178 179 175 171 165 158 154 152 150 154 150 152 143 164 169 228 223 0 171 130 149 142 138 129 124 141 148 160 152 148 140 139 200 222 156 200 205 255 273 306 58 321 227 240 180 146 91 263 273 98 333 20 20 92 92 98 6 193 155 183 197 200 214 121 100 136 146 154 165 173 173 173 177
239 234 226 223 224 211 212 224 208 194 191 188 178 175 178 176 175 173 170 165 161 155 154 152 149 154 159 152 160 208 229 142 163 159 132 138 146 154 145 142 147 140 135 159 122 134 152 159 175 151 237 279 258 263 281 109 229 278 253 197 155 182 124 287 147 212 308 88 98 134 133 131 312 134 251 197 181 169 112 117 132 149 164 171 172 176 178 176
232 229 223 217 215 207 211 222 213 192 189 184 175 172 173 174 170 170 167 164 160 161 155 153 151 151 162 179 167 212 317 141 161 149 144 145 151 163 146 145 149 147 145 142 148 158 156 160 182 16 307 230 320 272 170 212 212 351 37 59 74 144 155 241 112 194 77 349 113 110 104 115 338 29 222 205 179 159 128 139 147 156 166 172 176 177 182 186
224 219 216 214 209 205 205 217 210 196 180 183 174 171 167 171 168 168 168 165 164 159 156 152 152 155 142 178 201 203 304 130 157 157 145 151 164 176 154 156 156 152 150 149 164 177 170 158 140 142 220 23 250 291 273 290 135 219 284 279 268 93 144 208 151 218 118 231 150 147 86 270 199 218 220 197 168 168 141 155 160 164 171 174 177 179 183 192
217 211 213 211 203 202 203 214 199 192 183 175 170 170 168 166 170 168 167 164 163 159 156 154 147 154 149 176 227 291 325 134 139 149 146 150 131 117 157 156 154 153 157 152 168 192 153 142 156 211 241 275 255 243 217 77 307 170 211 198 6 323 300 236 179 151 127 267 171 169 218 244 226 229 215 190 162 154 141 161 171 171 172 178 176 181 189 193
210 207 205 204 199 198 199 206 204 181 177 172 165 164 163 165 168 168 165 162 155 146 153 151 145 151 160 209 141 241 171 125 128 138 145 143 129 118 140 152 145 156 157 164 184 163 134 158 170 229 295 260 272 314 278 56 35 176 233 136 197 112 262 231 168 170 144 260 166 98 197 274 258 254 209 199 163 159 170 176 180 180 179 176 181 181 188 196
204 201 198 199 197 196 194 199 194 184 173 169 163 162 160 163 165 162 157 150 148 147 147 144 155 129 159 201 3 262 121 99 145 164 159 147 129 120 146 160 144 165 172 164 159 140 152 129 163 229 248 217 240 279 304 198 198 195 167 233 284 160 273 321 124 169 159 251 146 105 280 239 260 275 215 177 170 159 172 185 188 187 186 181 180 184 188 195
197 195 192 193 193 192 190 195 193 181 173 163 161 154 156 158 162 161 155 148 149 145 140 148 181 147 146 177 190 112 123 154 199 171 185 145 152 154 158 156 130 118 118 44 100 109 141 138 178 204 245 261 231 172 252 13 257 246 163 236 208 166 245 19 242 203 122 128 239 173 203 309 292 280 166 182 166 171 170 187 197 199 194 191 183 185 189 189
192 189 188 188 188 189 187 186 188 179 165 161 151 152 154 152 150 151 146 135 145 144 156 160 147 183 153 309 92 157 189 193 124 147 175 194 145 129 127 130 130 117 87 86 96 112 133 167 151 329 213 224 186 171 193 235 227 216 176 194 209 182 205 218 304 214 155 140 202 227 198 236 269 310 172 166 168 160 178 194 197 200 200 197 193 188 187 192
187 185 183 183 183 186 187 179 181 176 163 158 149 148 149 147 138 131 131 123 115 108 47 20 147 116 263 131 182 190 153 122 162 154 135 174 145 140 143 145 129 127 119 111 46 169 165 188 149 221 197 213 212 180 189 205 182 170 146 201 281 265 172 187 160 236 136 208 183 184 249 277 271 267 253 208 183 174 193 195 199 198 199 195 197 199 198 198
184 181 180 178 178 182 187 179 172 170 160 153 146 145 136 125 119 114 126 142 129 109 136 211 186 183 197 192 165 129 156 149 121 133 139 122 155 135 102 71 136 141 151 159 231 161 160 122 151 215 217 202 210 197 178 210 172 170 167 186 190 198 225 204 228 276 172 172 204 184 212 231 247 236 247 259 239 198 207 201 203 207 200 197 196 201 201 206
181 179 177 173 170 173 179 178 161 162 149 144 147 139 125 131 132 157 146 161 194 163 24 192 185 123 49 127 161 136 98 126 127 281 140 155 135 139 117 125 128 144 141 181 162 194 143 185 190 204 208 197 206 193 190 235 166 137 157 174 203 199 256 305 271 289 83 120 223 212 230 247 264 229 235 218 222 253 264 239 223 206 199 200 203 202 206 206
177 176 172 169 169 170 167 166 158 153 152 154 151 151 164 157 145 159 156 173 195 216 45 158 206 200 169 146 125 128 129 151 115 157 175 162 134 143 162 139 159 163 178 157 150 188 160 196 212 197 195 190 204 210 227 258 279 144 134 174 227 198 209 262 243 312 329 156 260 215 242 257 255 256 235 215 161 219 218 223 228 221 207 203 200 206 207 212
174 172 167 166 168 174 163 158 158 156 154 155 162 170 160 163 161 162 147 156 206 217 269 173 222 358 107 139 150 140 127 98 90 153 206 157 166 164 173 164 166 171 173 154 139 162 197 205 185 185 183 204 207 207 220 233 243 292 141 166 201 233 163 275 344 346 298 98 257 7 220 255 251 251 255 171 195 221 214 205 209 207 214 211 210 210 209 203
169 168 164 161 160 165 164 152 160 158 157 161 174 169 163 140 109 100 45 100 151 177 229 173 203 239 132 119 146 136 140 161 162 179 172 165 155 191 152 163 171 170 170 173 171 162 187 217 197 179 188 205 223 215 217 236 236 208 81 76 216 203 138 250 291 30 346 133 235 52 342 284 290 270 255 227 202 230 218 212 221 204 207 211 208 199 196 206
166 164 162 163 159 153 157 150 156 161 173 172 169 164 143 126 125 133 111 125 142 203 234 194 171 190 169 151 186 152 154 158 132 179 189 155 162 155 155 167 166 167 182 181 168 170 190 170 193 176 190 197 210 202 206 216 241 240 144 141 147 122 207 154 204 113 342 0 86 42 350 303 256 270 289 265 226 238 241 219 241 248 236 225 221 200 200 198
164 163 160 163 165 148 156 150 160 172 162 160 156 142 140 147 138 152 111 97 123 179 167 171 229 280 185 352 137 132 138 115 165 163 171 157 152 137 184 162 162 187 169 176 146 164 210 184 136 169 188 195 192 184 200 175 206 260 232 176 178 183 116 85 94 104 34 318 306 134 6 297 285 257 237 239 252 230 226 205 223 224 227 225 223 219 216 218
163 161 158 155 160 148 148 160 171 157 159 173 162 154 153 139 147 139 103 82 134 156 133 185 162 215 147 138 133 127 118 151 163 164 161 176 147 151 138 191 167 179 172 168 167 172 185 243 160 189 176 189 187 178 200 167 187 182 253 189 173 150 126 127 134 87 9 204 296 71 179 267 327 306 265 263 258 255 255 215 229 220 221 215 219 220 215 211
163 161 161 151 152 144 150 181 152 153 164 176 161 144 154 142 98 111 112 339 196 169 151 126 167 177 167 173 158 136 156 189 95 140 159 204 165 243 156 175 139 146 161 151 142 224 92 140 192 202 155 171 178 191 212 149 139 206 235 98 130 115 130 169 135 134 202 227 315 31 123 183 294 291 265 253 228 264 272 250 239 233 229 225 226 225 218 217
162 159 160 154 150 161 167 140 158 173 173 151 148 141 130 126 101 63 84 140 222 135 173 161 208 298 74 169 159 169 249 130 126 208 183 179 114 22 158 180 177 165 174 169 190 336 156 173 189 185 170 149 179 191 178 142 139 213 247 163 155 158 162 135 122 137 148 104 269 332 294 238 260 270 294 321 296 310 274 241 240 232 226 226 230 229 223 218
160 157 161 157 158 143 105 152 164 161 115 99 104 118 122 100 92 138 155 180 104 128 94 131 248 146 108 147 176 167 129 159 150 167 75 110 5 143 166 199 169 161 176 175 174 199 297 177 190 174 159 188 212 196 155 155 129 257 176 84 79 78 81 128 102 115 39 120 256 255 200 198 282 276 332 332 283 278 265 249 235 229 226 225 228 229 223 217
161 158 164 158 139 123 141 131 140 128 122 118 117 108 105 100 110 173 171 221 134 158 182 113 183 160 149 160 179 153 153 158 88 124 154 160 189 29 157 165 128 119 89 35 98 196 201 348 107 96 188 171 155 102 151 193 159 125 88 67 38 41 37 25 66 103 90 271 250 227 224 152 287 268 218 192 223 212 251 283 282 262 252 247 238 230 222 216
157 157 160 155 149 150 133 155 156 141 123 125 128 125 124 37 168 153 183 165 111 110 119 157 153 157 155 161 168 177 133 109 140 144 157 138 172 204 137 104 62 76 61 51 47 343 15 19 85 281 326 56 97 97 354 0 149 134 110 118 82 358 17 28 347 39 161 262 262 253 198 169 195 291 277 234 268 237 217 231 254 266 252 252 247 243 240 230
155 156 159 163 133 144 153 159 150 143 141 139 135 142 152 138 318 184 164 143 158 181 159 145 156 163 162 170 157 169 156 124 158 158 165 178 168 177 193 177 163 155 169 171 177 59 42 29 265 357 277 148 116 100 343 14 288 101 108 111 138 195 46 299 14 247 233 210 254 320 135 20 249 232 249 279 265 268 230 211 219 231 255 256 258 241 215 195
164 156 162 153 135 149 134 134 136 139 142 143 143 160 163 160 173 164 124 175 193 165 191 158 164 168 170 160 170 150 109 149 183 169 148 147 156 207 251 171 207 160 172 188 110 106 280 292 359 316 359 220 160 152 169 113 200 121 142 141 131 120 110 191 254 231 305 291 262 197 300 247 241 279 245 243 262 259 257 224 244 240 226 211 209 197 173 173
176 157 154 151 145 138 144 147 143 146 150 149 144 161 183 167 182 156 154 200 164 179 149 163 157 161 162 175 167 150 145 159 159 167 156 156 170 184 219 243 175 141 102 178 145 180 135 228 253 155 185 298 79 185 166 157 151 188 137 146 166 147 151 187 183 195 217 212 296 282 105 234 127 246 234 234 246 278 289 246 226 216 233 233 234 227 233 220
164 160 137 141 129 141 144 143 147 150 148 156 154 173 168 175 162 170 163 168 146 142 154 146 148 146 170 177 159 173 141 145 172 150 171 156 194 189 193 198 199 129 122 140 228 122 184 134 306 313 254 22 171 264 119 110 123 206 166 106 127 204 141 150 199 160 197 183 1 306 210 185 172 248 292 234 254 271 270 268 235 224 218 197 182 206 213 223
155 156 131 145 138 150 145 150 150 151 154 163 161 175 187 176 170 165 180 155 156 154 150 145 148 156 166 167 162 177 144 120 199 144 188 193 186 192 193 185 191 186 166 172 152 134 110 189 335 309 31 50 170 291 297 162 167 224 120 187 204 165 100 101 23 16 99 44 251 184 313 293 295 319 264 280 281 267 305 295 295 281 285 321 280 260 249 248
157 132 132 141 142 154 149 148 152 153 162 168 170 184 181 191 194 152 148 161 160 140 144 149 177 160 165 170 175 170 167 116 182 153 192 157 204 202 191 208 189 184 194 132 177 187 141 203 337 41 171 318 196 170 273 45 166 109 155 209 188 102 114 132 215 16 127 208 261 109 200 290 38 280 333 332 260 266 265 260 248 260 284 270 249 243 240 238
137 123 124 150 157 150 144 146 148 155 161 172 189 192 192 178 140 123 121 120 135 143 145 156 165 173 171 167 177 173 172 170 179 176 183 175 242 190 185 188 200 193 177 193 132 226 117 76 304 318 185 274 353 16 67 324 97 140 192 204 132 199 193 245 137 232 211 237 268 256 228 250 172 237 327 317 303 275 266 265 267 255 251 251 264 267 265 262
126 126 139 152 156 145 141 142 148 153 165 182 191 189 175 337 164 132 139 139 147 150 156 177 144 202 167 182 167 169 165 183 168 190 154 211 207 183 187 174 190 180 176 160 154 176 133 132 300 315 70 262 11 97 186 205 334 10 36 119 101 121 185 147 191 166 120 252 153 292 147 234 213 218 210 235 242 243 277 324 261 251 235 239 249 264 263 259
131 135 140 162 160 147 136 140 144 161 181 187 187 198 152 166 154 148 147 146 157 151 175 158 170 156 178 176 159 164 182 169 169 187 190 180 194 205 182 169 168 182 176 166 163 161 179 115 158 273 287 93 192 181 199 159 152 206 117 196 284 10 258 107 217 169 174 185 194 208 303 276 257 216 201 230 235 224 209 234 229 230 247 236 239 245 257 246
137 123 130 169 153 143 133 131 159 179 189 210 201 167 163 174 139 151 151 145 140 37 145 163 163 169 167 148 168 161 156 145 167 182 185 155 182 177 212 177 146 169 142 165 150 172 118 134 152 146 94 217 244 224 185 192 189 174 166 193 179 127 116 165 241 14 122 178 229 188 253 261 267 200 207 214 230 214 229 199 218 242 246 258 255 262 252 259
140 134 152 165 152 150 144 150 186 187 194 186 181 158 170 111 133 158 150 149 143 134 123 143 164 159 161 169 163 167 158 170 176 175 199 160 198 152 191 153 158 155 162 182 170 232 139 109 108 154 208 193 222 278 193 14 47 232 179 206 175 161 132 154 188 235 17 239 151 158 245 248 234 203 210 203 197 219 227 188 247 242 245 258 266 259 270 238
145 119 144 157 162 160 157 167 175 181 191 185 137 353 135 147 143 162 149 158 151 138 135 163 171 148 183 159 157 156 159 171 172 190 156 148 178 198 167 158 147 161 148 162 125 180 86 104 82 0 35 301 310 303 313 39 36 303 259 55 138 191 190 170 175 177 174 205 199 246 243 264 244 205 208 218 220 243 269 221 228 252 263 270 269 286 281 288
118 133 133 164 167 173 164 166 174 192 178 147 188 172 339 143 138 155 156 164 149 162 161 153 168 174 163 170 159 169 167 152 205 172 123 150 179 203 151 158 158 168 168 192 172 199 122 273 116 117 39 357 334 349 342 343 56 153 218 229 176 242 65 191 94 57 182 208 171 164 242 254 265 201 221 254 278 283 267 251 200 248 280 276 275 260 262 262
121 82 114 143 182 194 194 200 178 170 176 171 175 152 153 144 173 165 155 166 129 152 144 173 165 155 154 154 167 161 175 165 146 201 110 148 173 29 180 164 169 171 183 166 156 147 110 175 144 144 166 173 190 203 204 191 179 236 224 195 192 191 169 122 165 191 204 237 162 195 241 226 257 356 297 284 318 292 242 199 243 220 238 251 254 272 291 273
159 134 133 95 176 212 266 25 35 157 164 169 161 198 148 133 155 162 142 162 124 97 102 123 107 126 126 136 141 160 175 138 140 179 154 163 153 279 205 185 171 173 157 147 144 143 136 154 187 185 186 199 199 86 83 112 94 195 216 168 207 190 199 143 113 142 210 176 176 226 230 234 215 218 315 277 142 218 283 312 311 293 271 262 261 257 257 249
74 138 151 136 106 226 221 261 285 167 179 174 169 177 158 155 138 132 169 142 182 138 117 143 153 144 168 151 160 166 170 84 89 142 171 146 288 177 35 159 158 155 146 133 153 101 113 165 216 203 202 175 151 164 180 149 177 202 167 191 186 164 171 171 185 218 146 103 237 233 228 243 230 225 251 263 275 274 273 270 277 283 275 260 264 278 281 290
130 227 171 169 162 172 208 251 216 187 179 174 181 154 164 149 159 159 300 176 146 150 128 11 165 167 166 168 151 154 166 147 147 163 135 119 112 136 93 355 99 235 149 142 159 132 147 192 216 130 194 165 162 151 165 165 180 181 182 176 177 185 162 193 218 219 147 194 229 229 203 237 240 189 218 219 226 246 257 255 250 259 295 282 270 319 320 265
42 66 109 328 308 194 186 187 183 185 176 181 154 160 153 159 168 164 150 146 145 172 152 159 180 172 171 156 154 152 163 144 194 166 159 167 154 139 100 81 35 34 120 125 125 168 108 195 182 157 163 143 189 163 173 162 181 165 181 188 187 177 196 202 215 213 195 220 236 249 220 247 247 199 205 212 220 226 243 311 356 191 231 238 221 223 237 246
21 130 163 21 12 164 120 72 89 174 188 185 154 183 163 168 167 148 150 155 159 187 171 163 173 169 158 159 157 165 178 184 166 153 190 125 145 122 150 177 150 43 97 136 142 317 121 239 140 124 124 202 215 177 150 154 150 182 205 198 196 197 202 208 212 218 209 261 264 266 256 262 256 154 208 219 221 177 48 246 237 240 248 246 218 220 234 242
23 313 1 159 143 136 133 154 164 175 175 190 183 183 168 172 169 161 155 171 168 164 171 170 161 147 153 158 167 176 182 169 157 165 162 150 169 194 144 242 142 131 128 119 102 334 107 208 60 120 149 228 215 123 95 86 94 169 210 213 210 200 205 216 214 205 180 219 233 245 260 254 45 161 201 174 122 131 200 227 249 261 253 223 215 230 233 242
258 294 132 155 129 178 154 155 166 159 196 193 184 181 178 180 165 154 130 343 122 145 144 124 129 122 142 159 176 179 164 148 164 150 167 161 131 105 87 154 153 152 165 166 165 150 159 133 150 138 153 225 257 127 125 102 104 336 243 220 198 195 208 205 223 207 207 207 215 223 236 245 142 210 170 162 155 211 234 240 246 251 246 219 218 229 243 249